Zurück zum Katalog

STARLINK-4080

AktivKommunikationVLEO
NORAD 52835·PAYLOAD·🇺🇸 United States

Gestartet Jun 17, 2022 von Cape Canaveral Space Force Station

Loading…

Nächste Überflüge (nächste 24 Stunden)

TLE

AktuellSource: CelesTrak SupGP

Epoche: Sep 15, 2026, 01:17 UTC

1 52835C 22062F   26258.05395833 -.00038996  00000+0 -12536-2 0  2587
2 52835  53.1585 254.1688 0001293  91.2152 238.3542 15.31731231    16

Verfolge STARLINK-4080 in Echtzeit mit AllMySat

Download on the App Store